Wooster, OH

10:19 PM EST on February 20, 2017 (GMT -0500)
Wayne County

Weather History for KBJJ - October, 2011

Change the Weather History Date:

Friday, October 21, 2011

  Actual Average Record
Temperature  
Mean Temperature 44 °F -  
Max Temperature 48 °F 57 °F 81 °F (2007)
Min Temperature 42 °F 36 °F 26 °F (1997)
Degree Days  
Heating Degree Days 21    
Moisture  
Dew Point 40 °F    
Average Humidity 87    
Maximum Humidity 96    
Minimum Humidity 77    
Precipitation  
Precipitation 0.02 in - - ()
Sea Level Pressure  
Sea Level Pressure 29.95 in    
Wind  
Wind Speed 11 mph (West)    
Max Wind Speed 16 mph    
Max Gust Speed 23 mph    
Visibility 9 miles    
Events Rain    
Averages and records for this station are not official NWS values.
T = Trace of Precipitation, MM = Missing Value Source: NWS Daily Summary

Daily Weather History Graph

Daily Weather History Graph

Search for Another Location

Airport or City:

Trip Planner

Search our weather history database for the weather conditions in past years. The results will help you decide how hot, cold, wet, or windy it might be!

Date:

Astronomy

Oct. 21, 2011 Rise Set
Actual Time 7:45 AM EDT 6:38 PM EDT
Civil Twilight 7:17 AM EDT 7:06 PM EDT
Nautical Twilight 6:45 AM EDT 7:38 PM EDT
Astronomical Twilight 6:13 AM EDT 8:10 PM EDT
Moon 1:31 AM EDT 3:24 PM EDT
Length of Visible Light 11h 49m
Length of Day
10h 53m
Waning Crescent, 34% of the Moon is Illuminated
Oct 21
Waning Crescent
Oct 26
New
Nov 2
First Quarter
Nov 10
Full
Nov 18
Last Quarter

Hourly Weather History & Observations

Time (EDT) Temp. Windchill Dew Point Humidity Pressure Visibility Wind Dir Wind Speed Gust Speed Precip Events Conditions
12:09 AM 42.8 °F 37.0 °F 41.0 °F 93% 29.74 in 4.0 mi West 10.4 mph - 0.01 in Rain Light Rain
12:39 AM 42.8 °F 35.8 °F 41.0 °F 93% 29.75 in 6.0 mi West 13.8 mph 21.9 mph 0.01 in Rain Light Rain
12:56 AM 42.1 °F 35.2 °F 39.9 °F 92% 29.78 in 7.0 mi West 12.7 mph 20.7 mph 0.01 in   Overcast
1:56 AM 42.1 °F 35.2 °F 39.9 °F 92% 29.80 in 6.0 mi West 12.7 mph - 0.01 in Rain Light Rain
2:56 AM 42.1 °F 34.2 °F 39.9 °F 92% 29.82 in 10.0 mi West 16.1 mph 21.9 mph 0.00 in Rain Light Rain
3:44 AM 42.8 °F 35.4 °F 39.2 °F 87% 29.82 in 10.0 mi West 15.0 mph 20.7 mph 0.00 in Rain Light Rain
3:56 AM 42.1 °F 35.7 °F 39.0 °F 89% 29.84 in 10.0 mi West 11.5 mph 23.0 mph 0.00 in Rain Light Rain
4:56 AM 42.1 °F 34.5 °F 39.9 °F 92% 29.86 in 10.0 mi West 15.0 mph 20.7 mph 0.00 in   Overcast
5:11 AM 42.8 °F 36.6 °F 39.2 °F 87% 29.85 in 10.0 mi West 11.5 mph - N/A   Overcast
5:31 AM 42.8 °F 37.5 °F 39.2 °F 87% 29.86 in 10.0 mi West 9.2 mph 18.4 mph N/A   Overcast
5:47 AM 42.8 °F 37.5 °F 39.2 °F 87% 29.87 in 6.0 mi West 9.2 mph - 0.00 in Rain Light Rain
5:56 AM 42.1 °F 36.1 °F 41.0 °F 96% 29.89 in 6.0 mi West 10.4 mph - 0.00 in Rain Light Rain
6:04 AM 42.8 °F 37.0 °F 41.0 °F 93% 29.87 in 5.0 mi West 10.4 mph - 0.00 in Rain Light Rain
6:56 AM 42.1 °F 36.6 °F 41.0 °F 96% 29.91 in 7.0 mi West 9.2 mph - 0.00 in   Overcast
7:56 AM 42.1 °F 37.1 °F 41.0 °F 96% 29.94 in 10.0 mi West 8.1 mph - N/A   Overcast
8:56 AM 43.0 °F 38.8 °F 41.0 °F 93% 29.97 in 10.0 mi West 6.9 mph - 0.00 in   Overcast
9:06 AM 42.8 °F 38.0 °F 41.0 °F 93% 29.96 in 10.0 mi West 8.1 mph - N/A   Overcast
9:56 AM 44.1 °F 38.1 °F 39.9 °F 85% 29.99 in 10.0 mi WNW 11.5 mph - N/A   Overcast
10:56 AM 44.1 °F 39.5 °F 41.0 °F 89% 30.01 in 10.0 mi West 8.1 mph - N/A   Overcast
11:56 AM 46.0 °F 41.0 °F 41.0 °F 83% 30.03 in 10.0 mi West 10.4 mph - N/A   Overcast
12:56 PM 46.0 °F 41.0 °F 39.9 °F 79% 30.03 in 10.0 mi West 10.4 mph - N/A   Overcast
1:56 PM 46.9 °F - 39.9 °F 77% 30.03 in 10.0 mi West 10.4 mph 16.1 mph N/A   Overcast
2:56 PM 46.9 °F - 39.9 °F 77% 30.04 in 10.0 mi West 10.4 mph 18.4 mph N/A   Overcast
3:56 PM 46.9 °F - 39.9 °F 77% 30.05 in 10.0 mi West 10.4 mph - N/A   Overcast
4:56 PM 46.0 °F 42.5 °F 39.9 °F 79% 30.07 in 10.0 mi WSW 6.9 mph - N/A   Overcast
5:56 PM 46.0 °F 40.6 °F 39.9 °F 79% 30.08 in 10.0 mi West 11.5 mph - N/A   Overcast
6:56 PM 46.0 °F 43.9 °F 39.9 °F 79% 30.09 in 10.0 mi West 4.6 mph - N/A   Overcast
7:56 PM 46.0 °F 42.5 °F 39.9 °F 79% 30.10 in 10.0 mi NW 6.9 mph - N/A   Overcast
9:56 PM 44.1 °F - 41.0 °F 89% 30.12 in 10.0 mi Calm Calm - N/A   Overcast
10:56 PM 44.1 °F - 41.0 °F 89% 30.12 in 10.0 mi Calm Calm - N/A   Overcast
11:56 PM 43.0 °F - 41.0 °F 93% 30.12 in 10.0 mi Calm Calm - N/A   Overcast